Regional Weather Roundup
Issued by NWS

Home | Current Version | Previous Version | Text Only | Print | Product List | Glossary On
Versions: 1 2 3 4 5 6 7 8 9 10 11 12 13 14 15 16 17 18 19 20 21 22 23 24 25 26 27 28 29 30 31 32 33 34 35 36 37 38 39 40 41 42 43 44 45 46 47 48 49 50
805
ASUS44 KJAN 311103
RWRMS

MISSISSIPPI HOURLY WEATHER ROUNDUP
NATIONAL WEATHER SERVICE JACKSON MS
500 AM CST SAT JAN 31 2015

NOTE: "FAIR: INDICATES FEW OR NO CLOUDS BELOW 12,000 FEET WITH NO
SIGNIFICANT WEATHER AND/OR OBSTRUCTIONS TO VISIBILITY.

MSZ001>002-007>008-010>013-018>021-025>028-034>036-311200-
NORTHWEST MISSISSIPPI

CITY           SKY/WX    TMP DP  RH WIND       PRES   REMARKS
CLARKSDALE     FAIR      36  32  87 NE3       30.38S
CLEVELAND      FAIR      36  32  87 E5        30.36S WCI  32
GREENWOOD      PTCLDY    32  28  85 CALM      30.36S
GREENVILLE     MOCLDY    35  29  78 CALM      30.36R
GRENADA        FAIR      34  28  80 NE5       30.37S WCI  30
OLIVE BRANCH   CLEAR     34  27  75 CALM      30.37S
OXFORD         FAIR      36  21  55 E5        30.37F WCI  32
TUNICA         CLOUDY    36  30  80 CALM      30.38S
$$

MSZ003>006-009-014>017-022>024-029>033-037>039-311200-
NORTHEAST MISSISSIPPI

CITY           SKY/WX    TMP DP  RH WIND       PRES   REMARKS
COLUMBUS AFB   CLOUDY    30  27  88 N1        30.37S
CORINTH        FAIR      32  27  80 CALM      30.35F
GOLDN TRIANGLE MOCLDY    30  27  86 N3        30.35F
STARKVILLE     FAIR      32  28  86 NE5       30.37S WCI  27
TUPELO         CLOUDY    32  24  72 CALM      30.37S
$$

MSZ040-058-311200-
CENTRAL MISSISSIPPI

CITY           SKY/WX    TMP DP  RH WIND       PRES   REMARKS
JACKSON INTL   CLEAR     33  28  81 CALM      30.33S
JACKSON HAWKNS PTCLDY    38  28  67 E5        30.33S WCI  34
MERIDIAN KEY   CLEAR     28  25  88 NW5       30.34S WCI  23
MERIDIAN NAS     N/A     29  25  85 CALM      30.35S
RAYMOND        FAIR      36  32  87 MISG      30.33R
VICKSBURG      CLOUDY    39  32  76 N5        30.35R
$$

MSZ059>079-311200-
SOUTH MISSISSIPPI

CITY           SKY/WX    TMP DP  RH WIND       PRES   REMARKS
BROOKHAVEN     FAIR      37  30  75 E5        30.31F WCI  34
HATTIESBURG    CLEAR     31  28  89 CALM      30.32F
MCCOMB         CLEAR     38  28  67 VRB3      30.29S
NATCHEZ        MOCLDY    39  28  65 N6        30.31R WCI  35
PINE BELT      CLEAR     32  25  74 NE6       30.32S WCI  26
$$

MSZ080>082-311200-
COASTAL MISSISSIPPI

CITY           SKY/WX    TMP DP  RH WIND       PRES   REMARKS
BILOXI         CLEAR     39  31  72 NE9       30.29F WCI  33
PASCAGOULA     CLEAR     31  29  92 CALM      30.31F
GULFPORT       CLEAR     39  30  70 NE6       30.28F WCI  35
$$



USA.gov is the U.S. government's official web portal to all federal, state and local government web resources and services.